TimeEDT,TemperatureF,Dew PointF,Humidity,Sea Level PressureIn,VisibilityMPH,Wind Direction,Wind SpeedMPH,Gust SpeedMPH,PrecipitationIn,Events,Conditions,WindDirDegrees,DateUTC
12:15 AM,44.6,44.6,100,29.76,0.8,Calm,Calm,-,N/A,,Overcast,0,2012-10-14 04:15:00
12:35 AM,44.6,44.6,100,29.76,0.5,Calm,Calm,-,N/A,,Overcast,0,2012-10-14 04:35:00
1:15 AM,44.6,44.6,100,29.76,0.5,Calm,Calm,-,N/A,,Overcast,0,2012-10-14 05:15:00
1:35 AM,44.6,44.6,100,29.77,0.5,North,3.5,-,N/A,,Overcast,360,2012-10-14 05:35:00
1:55 AM,44.6,44.6,100,29.76,0.5,Calm,Calm,-,N/A,,Overcast,0,2012-10-14 05:55:00
2:15 AM,44.6,44.6,100,29.77,0.2,Calm,Calm,-,N/A,,Overcast,0,2012-10-14 06:15:00
2:35 AM,44.6,44.6,100,29.77,0.2,Calm,Calm,-,N/A,,Overcast,0,2012-10-14 06:35:00
2:55 AM,44.6,44.6,100,29.76,0.2,Calm,Calm,-,N/A,,Overcast,0,2012-10-14 06:55:00
3:15 AM,44.6,44.6,100,29.75,0.2,Calm,Calm,-,N/A,,Overcast,0,2012-10-14 07:15:00
3:35 AM,44.6,44.6,100,29.76,0.2,Calm,Calm,-,N/A,,Overcast,0,2012-10-14 07:35:00
3:55 AM,44.6,44.6,100,29.76,0.5,Calm,Calm,-,N/A,,Overcast,0,2012-10-14 07:55:00
4:15 AM,44.6,44.6,100,29.76,0.5,Calm,Calm,-,N/A,,Overcast,0,2012-10-14 08:15:00
4:35 AM,44.6,44.6,100,29.77,0.5,Calm,Calm,-,N/A,,Overcast,0,2012-10-14 08:35:00
4:55 AM,44.6,44.6,100,29.76,0.2,Calm,Calm,-,N/A,,Overcast,0,2012-10-14 08:55:00
5:15 AM,44.6,44.6,100,29.77,0.2,Calm,Calm,-,N/A,,Overcast,0,2012-10-14 09:15:00
5:35 AM,44.6,44.6,100,29.77,0.5,Calm,Calm,-,N/A,,Overcast,0,2012-10-14 09:35:00
5:55 AM,44.6,44.6,100,29.77,0.5,Calm,Calm,-,N/A,,Overcast,0,2012-10-14 09:55:00
6:15 AM,46.4,46.4,100,29.76,0.5,ENE,3.5,-,N/A,,Overcast,70,2012-10-14 10:15:00
6:35 AM,46.4,44.6,93,29.76,0.5,NE,3.5,-,N/A,,Overcast,50,2012-10-14 10:35:00
6:55 AM,46.4,44.6,93,29.77,0.5,ENE,4.6,-,N/A,,Overcast,70,2012-10-14 10:55:00
7:15 AM,46.4,44.6,93,29.76,0.5,NE,4.6,-,N/A,,Overcast,40,2012-10-14 11:15:00
7:35 AM,46.4,44.6,93,29.75,0.5,NE,5.8,-,N/A,,Overcast,50,2012-10-14 11:35:00
7:55 AM,46.4,44.6,93,29.75,0.2,NE,5.8,-,N/A,,Overcast,50,2012-10-14 11:55:00
8:15 AM,46.4,46.4,100,29.75,0.2,ENE,5.8,-,N/A,,Overcast,70,2012-10-14 12:15:00
8:35 AM,46.4,46.4,100,29.75,0.2,East,8.1,-,N/A,,Overcast,80,2012-10-14 12:35:00
8:55 AM,46.4,46.4,100,29.74,0.2,ENE,6.9,-,N/A,,Overcast,70,2012-10-14 12:55:00
9:15 AM,46.4,46.4,100,29.74,0.2,East,8.1,-,N/A,,Overcast,80,2012-10-14 13:15:00
9:35 AM,46.4,46.4,100,29.73,1.0,ENE,8.1,-,0.01,,Overcast,70,2012-10-14 13:35:00
9:55 AM,46.4,46.4,100,29.72,3.0,ENE,8.1,-,0.02,,Overcast,70,2012-10-14 13:55:00
10:15 AM,48.2,48.2,100,29.70,3.0,ENE,8.1,-,0.02,,Overcast,60,2012-10-14 14:15:00
10:35 AM,48.2,46.4,93,29.69,5.0,ENE,10.4,-,0.03,,Overcast,70,2012-10-14 14:35:00
10:55 AM,48.2,46.4,93,29.68,3.0,East,10.4,-,0.05,,Overcast,80,2012-10-14 14:55:00
11:15 AM,48.2,46.4,93,29.67,3.0,East,12.7,-,0.05,,Overcast,80,2012-10-14 15:15:00
11:35 AM,48.2,46.4,93,29.66,5.0,ENE,12.7,18.4,0.10,,Overcast,70,2012-10-14 15:35:00
11:55 AM,48.2,46.4,93,29.64,7.0,ENE,15.0,-,0.12,,Overcast,70,2012-10-14 15:55:00
12:15 PM,48.2,46.4,93,29.63,10.0,ENE,12.7,20.7,0.01,,Overcast,60,2012-10-14 16:15:00
12:35 PM,48.2,46.4,93,29.62,7.0,ENE,17.3,-,0.05,,Overcast,60,2012-10-14 16:35:00
12:55 PM,48.2,48.2,100,29.60,10.0,ENE,12.7,20.7,0.13,,Overcast,60,2012-10-14 16:55:00
1:15 PM,48.2,48.2,100,29.59,10.0,ENE,10.4,-,0.06,,Overcast,60,2012-10-14 17:15:00
1:35 PM,48.2,48.2,100,29.58,10.0,NE,11.5,-,0.11,,Overcast,50,2012-10-14 17:35:00
1:55 PM,48.2,48.2,100,29.56,10.0,NE,16.1,20.7,0.15,,Overcast,50,2012-10-14 17:55:00
2:15 PM,48.2,46.4,93,29.54,10.0,NE,13.8,19.6,0.04,,Overcast,50,2012-10-14 18:15:00
2:35 PM,46.4,46.4,100,29.53,7.0,NE,12.7,19.6,0.07,,Overcast,50,2012-10-14 18:35:00
2:55 PM,46.4,46.4,100,29.52,10.0,NE,13.8,-,0.11,,Overcast,40,2012-10-14 18:55:00
3:15 PM,46.4,44.6,93,29.50,10.0,NE,15.0,-,0.04,,Overcast,40,2012-10-14 19:15:00
3:35 PM,46.4,46.4,100,29.49,10.0,NE,15.0,19.6,0.07,,Overcast,40,2012-10-14 19:35:00
3:55 PM,46.4,46.4,100,29.47,10.0,NE,15.0,20.7,0.10,,Overcast,40,2012-10-14 19:55:00
4:15 PM,46.4,46.4,100,29.45,10.0,NE,17.3,-,0.03,,Overcast,40,2012-10-14 20:15:00
4:35 PM,46.4,46.4,100,29.45,10.0,NE,15.0,-,0.05,,Overcast,40,2012-10-14 20:35:00
4:55 PM,46.4,46.4,100,29.43,10.0,NE,15.0,20.7,0.05,,Overcast,40,2012-10-14 20:55:00
5:15 PM,46.4,46.4,100,29.43,10.0,NE,13.8,-,0.01,,Overcast,40,2012-10-14 21:15:00
5:35 PM,46.4,46.4,100,29.42,10.0,NE,13.8,-,0.03,,Overcast,40,2012-10-14 21:35:00
5:55 PM,46.4,44.6,93,29.41,10.0,NE,11.5,21.9,0.04,,Overcast,40,2012-10-14 21:55:00
6:15 PM,46.4,44.6,93,29.41,6.0,NNE,11.5,23.0,0.02,,Overcast,30,2012-10-14 22:15:00
6:35 PM,44.6,44.6,100,29.40,9.0,NNE,13.8,18.4,0.04,,Overcast,30,2012-10-14 22:35:00
6:55 PM,44.6,44.6,100,29.39,10.0,NNE,15.0,23.0,0.07,,Overcast,30,2012-10-14 22:55:00
7:15 PM,44.6,42.8,93,29.37,6.0,NNE,20.7,27.6,0.01,,Overcast,30,2012-10-14 23:15:00
7:35 PM,44.6,44.6,100,29.37,7.0,NNE,12.7,27.6,0.01,,Overcast,30,2012-10-14 23:35:00
7:55 PM,44.6,44.6,100,29.38,9.0,NNE,16.1,20.7,0.05,,Overcast,20,2012-10-14 23:55:00
8:15 PM,44.6,44.6,100,29.38,10.0,NNE,12.7,19.6,0.04,,Overcast,20,2012-10-15 00:15:00
8:35 PM,44.6,42.8,93,29.37,10.0,North,17.3,23.0,0.09,,Overcast,10,2012-10-15 00:35:00
8:55 PM,42.8,42.8,100,29.36,10.0,North,16.1,19.6,0.13,,Overcast,10,2012-10-15 00:55:00
9:15 PM,42.8,41.0,93,29.37,10.0,North,16.1,20.7,0.03,,Overcast,10,2012-10-15 01:15:00
9:35 PM,42.8,41.0,93,29.36,5.0,North,13.8,21.9,0.04,,Overcast,360,2012-10-15 01:35:00
9:55 PM,42.8,41.0,93,29.36,3.0,North,16.1,-,0.05,,Overcast,10,2012-10-15 01:55:00
10:15 PM,42.8,41.0,93,29.36,4.0,North,16.1,21.9,0.02,,Overcast,360,2012-10-15 02:15:00
10:35 PM,42.8,42.8,100,29.36,2.0,North,17.3,23.0,0.06,,Overcast,360,2012-10-15 02:35:00
10:55 PM,42.8,42.8,100,29.35,4.0,North,16.1,20.7,0.10,,Overcast,360,2012-10-15 02:55:00
11:15 PM,41.0,39.2,93,29.36,4.0,North,16.1,19.6,0.05,,Overcast,350,2012-10-15 03:15:00
11:35 PM,41.0,41.0,100,29.36,5.0,NNW,15.0,21.9,0.09,,Overcast,340,2012-10-15 03:35:00
11:55 PM,41.0,41.0,100,29.36,5.0,NNW,15.0,21.9,0.12,,Overcast,340,2012-10-15 03:55:00